• In Deutschland
  • Länderverzeichnis
  • Für 7 Tage
  • Wassertemperatur
  • Satellitenkarten
  • Wetterkarte
  • Widgets
  • user-avatar
    Anmelden

    Stündliche Wetter Kozani

    Heute, 16 August, Donnerstag

    Zeit Temperatur Niederschläge Wind Luftdruck Luftfeuchtigkeit
    00:00 +20°C° 0,5 mm 1 m/S 703 mmHg 73%
    01:00 +20°C° 0,5 mm 1 m/S 703 mmHg 73%
    02:00 +20°C° 0,4 mm 1 m/S 703 mmHg 74%
    03:00 +19°C° 0,4 mm 1 m/S 703 mmHg 75%
    04:00 +19°C° 0,4 mm 1 m/S 702 mmHg 75%
    05:00 +20°C° 0,6 mm 1 m/S 703 mmHg 72%
    06:00 +21°C° 0,6 mm 1 m/S 703 mmHg 68%
    07:00 +23°C° 0,6 mm 1 m/S 703 mmHg 65%
    08:00 +24°C° 1 mm 2 m/S 703 mmHg 60%
    09:00 +25°C° 1 mm 2 m/S 704 mmHg 56%
    10:00 +26°C° 1 mm 2 m/S 704 mmHg 51%
    11:00 +27°C° 0,4 mm 2 m/S 704 mmHg 49%
    12:00 +27°C° 0,4 mm 2 m/S 704 mmHg 47%
    13:00 +28°C° 0,4 mm 2 m/S 704 mmHg 45%
    14:00 +27°C° 0,3 mm 1 m/S 703 mmHg 46%
    15:00 +27°C° 0,3 mm 1 m/S 703 mmHg 46%
    16:00 +27°C° 0,3 mm 1 m/S 703 mmHg 47%
    17:00 +26°C° 0,3 mm 1 m/S 703 mmHg 51%
    18:00 +24°C° 0,3 mm 1 m/S 703 mmHg 55%
    19:00 +22°C° 0,3 mm 1 m/S 703 mmHg 59%
    20:00 +22°C° 0,2 mm 1 m/S 703 mmHg 62%
    21:00 +21°C° 0,2 mm 1 m/S 703 mmHg 65%
    22:00 +20°C° 0,2 mm 2 m/S 703 mmHg 68%
    23:00 +19°C° 0 mm 2 m/S 703 mmHg 70%

    Morgen, 17 August, Freitag

    Zeit Temperatur Niederschläge Wind Luftdruck Luftfeuchtigkeit
    00:00 +19°C° 0 mm 2 m/S 703 mmHg 72%
    01:00 +18°C° 0 mm 2 m/S 703 mmHg 73%
    02:00 +18°C° 0 mm 2 m/S 703 mmHg 74%
    03:00 +18°C° 0 mm 2 m/S 703 mmHg 74%
    04:00 +18°C° 0 mm 2 m/S 703 mmHg 75%
    05:00 +19°C° 0 mm 2 m/S 703 mmHg 69%
    06:00 +22°C° 0 mm 1 m/S 703 mmHg 64%
    07:00 +23°C° 0 mm 1 m/S 704 mmHg 59%
    08:00 +25°C° 0 mm 1 m/S 704 mmHg 52%
    09:00 +27°C° 0 mm 1 m/S 704 mmHg 46%
    10:00 +29°C° 0 mm 1 m/S 705 mmHg 39%
    11:00 +30°C° 0 mm 1 m/S 704 mmHg 37%
    12:00 +30°C° 0 mm 1 m/S 704 mmHg 35%
    13:00 +31°C° 0 mm 1 m/S 704 mmHg 33%
    14:00 +31°C° 0 mm 1 m/S 704 mmHg 35%
    15:00 +30°C° 0 mm 1 m/S 704 mmHg 37%
    16:00 +30°C° 0 mm 1 m/S 703 mmHg 38%
    17:00 +28°C° 0 mm 1 m/S 703 mmHg 42%
    18:00 +26°C° 0 mm 1 m/S 703 mmHg 45%
    19:00 +25°C° 0 mm 1 m/S 703 mmHg 48%
    20:00 +24°C° 0,1 mm 1 m/S 703 mmHg 50%
    21:00 +24°C° 0,1 mm 1 m/S 704 mmHg 53%
    22:00 +23°C° 0,1 mm 1 m/S 704 mmHg 55%
    23:00 +22°C° 0 mm 1 m/S 703 mmHg 57%

    übermorgen, 18 August, Samstag

    Zeit Temperatur Niederschläge Wind Luftdruck Luftfeuchtigkeit
    00:00 +22°C° 0 mm 1 m/S 703 mmHg 58%
    01:00 +21°C° 0 mm 1 m/S 703 mmHg 60%
    02:00 +21°C° 0 mm 1 m/S 703 mmHg 62%
    03:00 +21°C° 0 mm 1 m/S 703 mmHg 63%
    04:00 +20°C° 0 mm 1 m/S 703 mmHg 64%
    05:00 +22°C° 0 mm 1 m/S 703 mmHg 60%
    06:00 +23°C° 0 mm 1 m/S 704 mmHg 56%
    07:00 +25°C° 0 mm 1 m/S 704 mmHg 52%
    08:00 +27°C° 0 mm 1 m/S 704 mmHg 47%
    09:00 +28°C° 0 mm 1 m/S 705 mmHg 41%
    10:00 +30°C° 0 mm 1 m/S 705 mmHg 36%
    11:00 +30°C° 0 mm 1 m/S 705 mmHg 36%
    12:00 +31°C° 0 mm 1 m/S 705 mmHg 35%
    13:00 +31°C° 0 mm 2 m/S 704 mmHg 35%
    14:00 +31°C° 0,1 mm 2 m/S 704 mmHg 36%
    15:00 +30°C° 0,1 mm 2 m/S 704 mmHg 38%
    16:00 +30°C° 0,1 mm 2 m/S 704 mmHg 40%
    17:00 +28°C° 0,3 mm 1 m/S 704 mmHg 45%
    18:00 +26°C° 0,3 mm 1 m/S 704 mmHg 50%
    19:00 +24°C° 0,3 mm 1 m/S 704 mmHg 56%
    20:00 +24°C° 0,5 mm 1 m/S 704 mmHg 58%
    21:00 +23°C° 0,5 mm 1 m/S 704 mmHg 61%
    22:00 +22°C° 0,5 mm 1 m/S 705 mmHg 64%
    23:00 +22°C° 0,2 mm 1 m/S 704 mmHg 65%

    19 August, Sonntag

    Zeit Temperatur Niederschläge Wind Luftdruck Luftfeuchtigkeit
    00:00 +21°C° 0,2 mm 2 m/S 704 mmHg 66%
    01:00 +20°C° 0,2 mm 2 m/S 704 mmHg 67%
    02:00 +20°C° 0,1 mm 2 m/S 704 mmHg 68%
    03:00 +20°C° 0,1 mm 2 m/S 704 mmHg 68%
    04:00 +19°C° 0,1 mm 2 m/S 704 mmHg 69%
    05:00 +21°C° 0 mm 2 m/S 704 mmHg 64%
    06:00 +23°C° 0 mm 2 m/S 705 mmHg 60%
    07:00 +24°C° 0 mm 2 m/S 705 mmHg 55%
    08:00 +26°C° 0 mm 2 m/S 705 mmHg 49%
    09:00 +28°C° 0 mm 2 m/S 705 mmHg 43%
    10:00 +29°C° 0 mm 3 m/S 706 mmHg 36%
    11:00 +30°C° 0 mm 3 m/S 705 mmHg 34%
    12:00 +31°C° 0 mm 3 m/S 705 mmHg 32%
    13:00 +31°C° 0 mm 3 m/S 705 mmHg 29%
    14:00 +31°C° 0 mm 3 m/S 705 mmHg 30%
    15:00 +31°C° 0 mm 2 m/S 705 mmHg 31%
    16:00 +30°C° 0 mm 2 m/S 705 mmHg 31%
    17:00 +29°C° 0 mm 2 m/S 705 mmHg 34%
    18:00 +27°C° 0 mm 1 m/S 704 mmHg 37%
    19:00 +25°C° 0 mm 1 m/S 704 mmHg 40%
    20:00 +24°C° 0 mm 1 m/S 704 mmHg 41%
    21:00 +24°C° 0 mm 1 m/S 705 mmHg 42%
    22:00 +23°C° 0 mm 1 m/S 705 mmHg 43%
    23:00 +23°C° 0 mm 1 m/S 705 mmHg 44%

    20 August, Montag

    Zeit Temperatur Niederschläge Wind Luftdruck Luftfeuchtigkeit
    00:00 +22°C° 0 mm 1 m/S 705 mmHg 45%
    01:00 +22°C° 0 mm 1 m/S 704 mmHg 46%
    02:00 +22°C° 0 mm 1 m/S 704 mmHg 47%
    03:00 +21°C° 0 mm 1 m/S 704 mmHg 49%
    04:00 +21°C° 0 mm 1 m/S 704 mmHg 50%
    05:00 +22°C° 0 mm 1 m/S 705 mmHg 48%
    06:00 +23°C° 0 mm 2 m/S 705 mmHg 47%
    07:00 +25°C° 0 mm 2 m/S 705 mmHg 45%
    08:00 +26°C° 0 mm 2 m/S 706 mmHg 41%
    09:00 +28°C° 0 mm 2 m/S 706 mmHg 37%
    10:00 +29°C° 0 mm 2 m/S 706 mmHg 34%
    11:00 +30°C° 0 mm 3 m/S 706 mmHg 32%
    12:00 +30°C° 0 mm 3 m/S 706 mmHg 31%
    13:00 +31°C° 0 mm 3 m/S 705 mmHg 30%
    14:00 +31°C° 0 mm 3 m/S 705 mmHg 30%
    15:00 +30°C° 0 mm 3 m/S 705 mmHg 31%
    16:00 +30°C° 0 mm 2 m/S 705 mmHg 32%
    17:00 +28°C° 0 mm 2 m/S 705 mmHg 36%
    18:00 +26°C° 0 mm 2 m/S 705 mmHg 39%
    19:00 +24°C° 0 mm 1 m/S 705 mmHg 43%
    20:00 +24°C° 0 mm 1 m/S 705 mmHg 44%
    21:00 +23°C° 0 mm 1 m/S 705 mmHg 45%
    22:00 +23°C° 0 mm 1 m/S 705 mmHg 46%
    23:00 +22°C° 0 mm 1 m/S 705 mmHg 47%

    21 August, Dienstag

    Zeit Temperatur Niederschläge Wind Luftdruck Luftfeuchtigkeit
    00:00 +22°C° 0 mm 1 m/S 705 mmHg 48%
    01:00 +21°C° 0 mm 1 m/S 705 mmHg 50%
    02:00 +21°C° 0 mm 1 m/S 705 mmHg 51%
    03:00 +21°C° 0 mm 1 m/S 705 mmHg 53%
    04:00 +20°C° 0 mm 1 m/S 705 mmHg 54%
    05:00 +22°C° 0 mm 1 m/S 705 mmHg 52%
    06:00 +23°C° 0 mm 1 m/S 706 mmHg 50%
    07:00 +24°C° 0 mm 1 m/S 706 mmHg 48%
    08:00 +26°C° 0 mm 2 m/S 706 mmHg 45%
    09:00 +28°C° 0 mm 2 m/S 706 mmHg 41%
    10:00 +29°C° 0 mm 2 m/S 707 mmHg 38%
    11:00 +30°C° 0 mm 2 m/S 706 mmHg 37%
    12:00 +30°C° 0 mm 2 m/S 706 mmHg 35%
    13:00 +31°C° 0 mm 3 m/S 706 mmHg 34%
    14:00 +30°C° 0 mm 2 m/S 706 mmHg 35%
    15:00 +30°C° 0 mm 2 m/S 706 mmHg 35%
    16:00 +30°C° 0 mm 2 m/S 706 mmHg 35%
    17:00 +28°C° 0 mm 2 m/S 705 mmHg 40%
    18:00 +26°C° 0 mm 2 m/S 705 mmHg 44%
    19:00 +24°C° 0 mm 1 m/S 705 mmHg 49%
    20:00 +23°C° 0 mm 1 m/S 705 mmHg 50%
    21:00 +23°C° 0 mm 1 m/S 705 mmHg 50%
    22:00 +22°C° 0 mm 1 m/S 705 mmHg 51%
    23:00 +21°C° 0 mm 1 m/S 705 mmHg 53%
    Mehr zeigen